This demonstration page uses our WeatherBlox Daily Observations layout. Learn more.

Left ArrowRight Arrow

39.29038, -76.61219

Hourly Observations for March 19, 2015

Temp ( °F °C ) Dew Point ( °F °C ) Humidity (%) Winds ( mph kmh ) Pressure ( in mb ) Visibility ( mi km ) Precip ( " mm )
12:54 am 00:54 undefined 40 4.4 13 -10.6 33 33 undefined N/A 30.22 1023 N/A 0.00 0.00
1:54 am 01:54 undefined 39 3.9 14 -10 36 36 undefined N/A 30.23 1024 N/A 0.00 0.00
2:54 am 02:54 undefined 38 3.3 15 -9.4 39 39 undefined N/A 30.24 1024 N/A 0.00 0.00
3:54 am 03:54 undefined 37 2.8 15 -9.4 41 41 undefined N/A 30.24 1024 N/A 0.00 0.00
4:54 am 04:54 undefined 36 2.2 18 -7.8 48 48 undefined N/A 30.25 1024 N/A 0.00 0.00
5:54 am 05:54 undefined 36 2.2 20 -6.7 52 52 undefined N/A 30.27 1025 N/A 0.00 0.00
6:54 am 06:54 undefined 36 2.2 18 -7.8 48 48 undefined N/A 30.30 1026 N/A 0.00 0.00
7:54 am 07:54 undefined 37 2.8 19 -7.2 48 48 undefined N/A 30.32 1027 N/A 0.00 0.00
8:54 am 08:54 undefined 39 3.9 14 -10 36 36 undefined N/A 30.34 1027 N/A 0.00 0.00
9:54 am 09:54 undefined 40 4.4 15 -9.4 36 36 undefined N/A 30.35 1028 N/A 0.00 0.00
10:54 am 10:54 undefined 42 5.6 15 -9.4 33 33 undefined N/A 30.36 1028 N/A 0.00 0.00
11:54 am 11:54 undefined 43 6.1 15 -9.4 32 32 undefined N/A 30.36 1028 N/A 0.00 0.00
12:54 pm 12:54 undefined 44 6.7 14 -10 30 30 undefined N/A 30.35 1028 N/A 0.00 0.00
1:54 pm 13:54 undefined 47 8.3 17 -8.3 30 30 undefined N/A 30.32 1027 N/A 0.00 0.00
2:54 pm 14:54 undefined 47 8.3 18 -7.8 31 31 undefined N/A 30.30 1026 N/A 0.00 0.00
3:54 pm 15:54 undefined 47 8.3 19 -7.2 33 33 undefined N/A 30.29 1026 N/A 0.00 0.00
4:54 pm 16:54 undefined 45 7.2 15 -9.4 30 30 undefined N/A 30.29 1026 N/A 0.00 0.00
5:54 pm 17:54 undefined 44 6.7 17 -8.3 34 34 undefined N/A 30.29 1026 N/A 0.00 0.00
6:54 pm 18:54 undefined 44 6.7 15 -9.4 31 31 undefined N/A 30.30 1026 N/A 0.00 0.00
7:54 pm 19:54 undefined 43 6.1 17 -8.3 35 35 undefined N/A 30.30 1026 N/A 0.00 0.00
8:54 pm 20:54 undefined 43 6.1 22 -5.6 43 43 undefined N/A 30.32 1027 N/A 0.00 0.00
9:54 pm 21:54 undefined 42 5.6 20 -6.7 41 41 undefined N/A 30.32 1027 N/A 0.00 0.00
10:54 pm 22:54 undefined 42 5.6 21 -6.1 43 43 undefined N/A 30.32 1027 N/A 0.00 0.00
11:54 pm 23:54 undefined 41 5 21 -6.1 45 45 undefined N/A 30.31 1027 N/A 0.00 0.00

Powered by AerisWeather